TimeEST,TemperatureF,Dew PointF,Humidity,Sea Level PressureIn,VisibilityMPH,Wind Direction,Wind SpeedMPH,Gust SpeedMPH,PrecipitationIn,Events,Conditions,WindDirDegrees,DateUTC
12:19 AM,42.8,33.6,70,30.28,10.0,SW,3.5,-,N/A,,Clear,220,2013-11-15 05:19:00
12:39 AM,42.6,33.1,69,30.28,10.0,SW,4.6,-,N/A,,Clear,230,2013-11-15 05:39:00
12:59 AM,41.5,32.4,70,30.28,10.0,SW,4.6,-,N/A,,Clear,220,2013-11-15 05:59:00
1:19 AM,41.7,32.2,69,30.27,10.0,SW,4.6,-,N/A,,Clear,220,2013-11-15 06:19:00
1:39 AM,42.1,32.0,67,30.27,10.0,SW,4.6,-,N/A,,Clear,220,2013-11-15 06:39:00
1:59 AM,41.9,32.0,68,30.27,10.0,SSW,3.5,-,N/A,,Clear,200,2013-11-15 06:59:00
2:19 AM,42.8,32.0,66,30.27,10.0,SW,3.5,-,N/A,,Clear,230,2013-11-15 07:19:00
2:39 AM,41.4,31.8,69,30.27,10.0,Calm,Calm,-,N/A,,Clear,0,2013-11-15 07:39:00
2:59 AM,42.1,32.0,67,30.28,10.0,SW,3.5,-,N/A,,Clear,220,2013-11-15 07:59:00
3:19 AM,39.2,31.1,73,30.28,10.0,SSW,4.6,-,N/A,,Clear,210,2013-11-15 08:19:00
3:39 AM,37.4,31.1,78,30.27,10.0,SSW,4.6,-,N/A,,Clear,210,2013-11-15 08:39:00
3:59 AM,40.6,31.6,70,30.27,10.0,Calm,Calm,-,N/A,,Clear,0,2013-11-15 08:59:00
4:19 AM,40.1,31.6,72,30.27,10.0,Calm,Calm,-,N/A,,Clear,0,2013-11-15 09:19:00
4:39 AM,38.3,32.0,78,30.27,10.0,Calm,Calm,-,N/A,,Clear,0,2013-11-15 09:39:00
4:59 AM,38.3,31.6,77,30.27,10.0,South,3.5,-,N/A,,Clear,190,2013-11-15 09:59:00
5:19 AM,37.0,31.1,79,30.28,10.0,Calm,Calm,-,N/A,,Clear,0,2013-11-15 10:19:00
5:21 AM,36.7,31.1,80,30.28,10.0,Calm,Calm,-,N/A,,Clear,0,2013-11-15 10:21:00
5:53 AM,39.2,30.2,70,30.29,10.0,Calm,Calm,-,N/A,,Clear,0,2013-11-15 10:53:00
6:53 AM,37.4,32.0,81,30.31,10.0,Calm,Calm,-,N/A,,Mostly Cloudy,0,2013-11-15 11:53:00
7:43 AM,39.2,32.0,75,30.32,10.0,Calm,Calm,-,N/A,,Mostly Cloudy,0,2013-11-15 12:43:00
8:50 AM,44.6,35.6,71,30.32,10.0,SSW,5.8,-,N/A,,Mostly Cloudy,210,2013-11-15 13:50:00
9:50 AM,48.2,33.8,58,30.33,10.0,SW,8.1,-,N/A,,Mostly Cloudy,220,2013-11-15 14:50:00
10:45 AM,51.8,32.0,47,30.32,10.0,SW,8.1,-,N/A,,Mostly Cloudy,220,2013-11-15 15:45:00
11:47 AM,55.4,32.0,41,30.30,10.0,West,5.8,-,N/A,,Scattered Clouds,260,2013-11-15 16:47:00
12:57 PM,57.2,32.0,38,30.26,10.0,SW,5.8,-,N/A,,Scattered Clouds,220,2013-11-15 17:57:00
1:50 PM,55.4,33.8,44,30.26,10.0,SSW,9.2,-,N/A,,Mostly Cloudy,210,2013-11-15 18:50:00
2:50 PM,55.4,33.8,44,30.25,10.0,SW,8.1,-,N/A,,Mostly Cloudy,220,2013-11-15 19:50:00
3:50 PM,53.6,32.0,44,30.26,10.0,SW,5.8,-,N/A,,Mostly Cloudy,220,2013-11-15 20:50:00
4:45 PM,50.0,32.0,50,30.26,10.0,SSW,4.6,-,N/A,,Scattered Clouds,200,2013-11-15 21:45:00
5:50 PM,46.4,32.0,57,30.26,10.0,Calm,Calm,-,N/A,,Scattered Clouds,0,2013-11-15 22:50:00
6:50 PM,44.6,33.8,66,30.26,10.0,SW,3.5,-,N/A,,Clear,220,2013-11-15 23:50:00
7:45 PM,46.4,35.6,66,30.26,10.0,Calm,Calm,-,N/A,,Clear,0,2013-11-16 00:45:00
8:50 PM,44.6,33.8,66,30.28,10.0,Calm,Calm,-,N/A,,Clear,0,2013-11-16 01:50:00
9:41 PM,42.8,37.2,81,30.28,10.0,Calm,Calm,-,N/A,,Clear,0,2013-11-16 02:41:00
10:01 PM,42.8,36.7,79,30.28,10.0,Calm,Calm,-,N/A,,Clear,0,2013-11-16 03:01:00
10:21 PM,42.1,37.2,83,30.28,10.0,Calm,Calm,-,N/A,,Clear,0,2013-11-16 03:21:00
10:41 PM,43.7,37.6,79,30.29,10.0,Calm,Calm,-,N/A,,Clear,0,2013-11-16 03:41:00
11:01 PM,44.2,38.3,80,30.29,10.0,Calm,Calm,-,N/A,,Clear,0,2013-11-16 04:01:00
11:21 PM,44.4,39.0,81,30.29,10.0,Calm,Calm,-,N/A,,Scattered Clouds,0,2013-11-16 04:21:00
11:41 PM,45.1,40.1,82,30.30,10.0,Calm,Calm,-,N/A,,Mostly Cloudy,0,2013-11-16 04:41:00